TimeCDT,TemperatureF,Dew PointF,Humidity,Sea Level PressureIn,VisibilityMPH,Wind Direction,Wind SpeedMPH,Gust SpeedMPH,PrecipitationIn,Events,Conditions,WindDirDegrees,DateUTC
12:05 AM,46.4,26.6,46,29.82,10.0,SE,3.5,-,N/A,,Clear,140,2012-10-03 05:05:00
12:25 AM,51.8,24.8,35,29.82,10.0,South,5.8,-,N/A,,Clear,190,2012-10-03 05:25:00
12:45 AM,59.0,23.0,25,29.82,10.0,SSE,5.8,-,N/A,,Clear,160,2012-10-03 05:45:00
1:05 AM,60.8,24.8,25,29.82,10.0,SSW,5.8,-,N/A,,Clear,210,2012-10-03 06:05:00
1:25 AM,60.8,24.8,25,29.82,10.0,SSW,8.1,-,N/A,,Clear,210,2012-10-03 06:25:00
1:45 AM,60.8,24.8,25,29.82,10.0,SW,10.4,-,N/A,,Clear,220,2012-10-03 06:45:00
2:05 AM,60.8,24.8,25,29.82,10.0,SW,9.2,16.1,N/A,,Clear,220,2012-10-03 07:05:00
2:25 AM,60.8,24.8,25,29.82,10.0,SW,11.5,-,N/A,,Clear,220,2012-10-03 07:25:00
2:45 AM,60.8,24.8,25,29.82,10.0,SW,12.7,-,N/A,,Clear,220,2012-10-03 07:45:00
3:05 AM,60.8,24.8,25,29.82,10.0,SW,11.5,18.4,N/A,,Clear,220,2012-10-03 08:05:00
3:25 AM,60.8,24.8,25,29.82,10.0,SW,11.5,-,N/A,,Clear,220,2012-10-03 08:25:00
3:45 AM,60.8,24.8,25,29.82,10.0,SW,15.0,18.4,N/A,,Clear,220,2012-10-03 08:45:00
4:05 AM,60.8,24.8,25,29.82,10.0,SW,12.7,20.7,N/A,,Clear,220,2012-10-03 09:05:00
4:25 AM,60.8,24.8,25,29.82,10.0,SW,13.8,18.4,N/A,,Clear,220,2012-10-03 09:25:00
4:45 AM,60.8,26.6,27,29.82,10.0,SW,12.7,20.7,N/A,,Clear,220,2012-10-03 09:45:00
5:05 AM,60.8,26.6,27,29.82,10.0,SW,12.7,19.6,N/A,,Clear,220,2012-10-03 10:05:00
5:25 AM,60.8,28.4,29,29.82,10.0,SSW,11.5,17.3,N/A,,Clear,210,2012-10-03 10:25:00
5:45 AM,60.8,28.4,29,29.83,10.0,SW,11.5,20.7,N/A,,Clear,220,2012-10-03 10:45:00
6:05 AM,60.8,28.4,29,29.83,10.0,SW,10.4,-,N/A,,Clear,220,2012-10-03 11:05:00
6:25 AM,59.0,28.4,31,29.83,10.0,SW,10.4,-,N/A,,Clear,230,2012-10-03 11:25:00
6:45 AM,59.0,28.4,31,29.83,10.0,SW,10.4,-,N/A,,Clear,220,2012-10-03 11:45:00
7:05 AM,59.0,28.4,31,29.84,10.0,SW,9.2,-,N/A,,Clear,230,2012-10-03 12:05:00
7:25 AM,57.2,28.4,33,29.84,10.0,ENE,4.6,-,N/A,,Clear,60,2012-10-03 12:25:00
7:45 AM,48.2,28.4,46,29.85,10.0,NE,6.9,-,N/A,,Clear,40,2012-10-03 12:45:00
8:02 AM,47.1,28.4,48,29.85,10.0,NE,6.9,-,N/A,,Clear,40,2012-10-03 13:02:00
8:14 AM,47.7,29.1,49,29.85,10.0,NE,4.6,-,N/A,,Clear,50,2012-10-03 13:14:00
8:35 AM,49.5,29.5,46,29.84,10.0,Calm,Calm,-,N/A,,Clear,0,2012-10-03 13:35:00
8:54 AM,52.9,30.0,42,29.85,7.0,Calm,Calm,-,N/A,,Clear,0,2012-10-03 13:54:00
9:14 AM,54.9,30.7,40,29.85,10.0,NE,3.5,-,N/A,,Clear,40,2012-10-03 14:14:00
9:35 AM,57.6,30.9,36,29.85,10.0,NNE,4.6,-,N/A,,Clear,20,2012-10-03 14:35:00
9:54 AM,60.6,31.1,33,29.85,10.0,NE,4.6,-,N/A,,Clear,40,2012-10-03 14:54:00
10:14 AM,62.2,31.3,31,29.85,10.0,NE,5.8,-,N/A,,Clear,40,2012-10-03 15:14:00
10:35 AM,65.8,30.4,27,29.84,10.0,ENE,5.8,-,N/A,,Clear,60,2012-10-03 15:35:00
10:54 AM,67.1,30.4,25,29.83,10.0,East,4.6,-,N/A,,Clear,100,2012-10-03 15:54:00
11:14 AM,68.5,31.1,25,29.83,10.0,ESE,5.8,-,N/A,,Clear,110,2012-10-03 16:14:00
11:35 AM,69.1,31.3,25,29.83,10.0,East,6.9,-,N/A,,Clear,100,2012-10-03 16:35:00
11:54 AM,71.1,31.6,23,29.82,10.0,ESE,6.9,-,N/A,,Clear,120,2012-10-03 16:54:00
12:14 PM,71.8,32.0,23,29.81,10.0,East,5.8,-,N/A,,Clear,100,2012-10-03 17:14:00
12:34 PM,73.9,32.0,21,29.80,10.0,East,8.1,-,N/A,,Clear,100,2012-10-03 17:34:00
12:55 PM,73.8,32.0,22,29.79,10.0,East,5.8,-,N/A,,Clear,100,2012-10-03 17:55:00
1:14 PM,73.4,32.2,22,29.78,10.0,ESE,8.1,11.5,N/A,,Clear,110,2012-10-03 18:14:00
1:34 PM,76.8,32.2,20,29.76,10.0,ENE,6.9,-,N/A,,Clear,70,2012-10-03 18:34:00
1:54 PM,79.2,28.6,16,29.75,10.0,SE,15.0,21.9,N/A,,Clear,140,2012-10-03 18:54:00
2:14 PM,79.9,28.0,15,29.74,7.0,SE,17.3,24.2,N/A,,Clear,130,2012-10-03 19:14:00
2:35 PM,79.3,27.5,15,29.75,10.0,SE,15.0,20.7,N/A,,Clear,130,2012-10-03 19:35:00
2:54 PM,78.8,26.1,14,29.75,10.0,South,16.1,21.9,N/A,,Clear,170,2012-10-03 19:54:00
3:14 PM,78.8,26.6,15,29.74,10.0,SSE,11.5,17.3,N/A,,Clear,150,2012-10-03 20:14:00
3:35 PM,79.5,26.2,14,29.73,10.0,SSE,17.3,24.2,N/A,,Clear,150,2012-10-03 20:35:00
3:54 PM,79.9,26.4,14,29.73,10.0,SE,15.0,23.0,N/A,,Clear,140,2012-10-03 20:54:00
4:15 PM,78.6,25.2,14,29.73,10.0,SSE,12.7,21.9,N/A,,Clear,160,2012-10-03 21:15:00
4:34 PM,77.2,26.1,15,29.72,10.0,SE,15.0,23.0,N/A,,Clear,140,2012-10-03 21:34:00
4:54 PM,77.5,26.6,15,29.73,10.0,SSE,11.5,-,N/A,,Clear,160,2012-10-03 21:54:00
5:15 PM,78.8,27.9,15,29.74,10.0,SSE,13.8,21.9,N/A,,Clear,150,2012-10-03 22:15:00
5:54 PM,76.5,28.8,17,29.75,10.0,SE,15.0,21.9,N/A,,Clear,140,2012-10-03 22:54:00
6:14 PM,75.2,29.3,18,29.75,10.0,SE,11.5,-,N/A,,Clear,140,2012-10-03 23:14:00
6:34 PM,73.8,30.2,20,29.75,7.0,SE,11.5,-,N/A,,Clear,130,2012-10-03 23:34:00
6:55 PM,71.4,30.7,22,29.74,7.0,SE,9.2,-,N/A,,Clear,130,2012-10-03 23:55:00
7:14 PM,70.3,31.1,23,29.74,10.0,ESE,9.2,-,N/A,,Clear,120,2012-10-04 00:14:00
7:34 PM,68.9,31.8,25,29.74,10.0,ESE,8.1,-,N/A,,Clear,120,2012-10-04 00:34:00
7:54 PM,65.1,32.0,29,29.75,10.0,ESE,4.6,-,N/A,,Clear,120,2012-10-04 00:54:00
8:14 PM,65.5,32.0,29,29.74,10.0,SE,8.1,-,N/A,,Mostly Cloudy,130,2012-10-04 01:14:00
8:34 PM,65.3,32.0,29,29.74,10.0,SE,6.9,-,N/A,,Mostly Cloudy,130,2012-10-04 01:34:00
8:54 PM,62.8,32.0,32,29.74,10.0,SE,6.9,-,N/A,,Scattered Clouds,130,2012-10-04 01:54:00
9:14 PM,61.0,32.2,34,29.74,10.0,SE,5.8,-,N/A,,Clear,130,2012-10-04 02:14:00
9:35 PM,60.1,32.4,35,29.74,7.0,SE,6.9,-,N/A,,Clear,130,2012-10-04 02:35:00
9:54 PM,57.9,33.1,39,29.73,10.0,SE,8.1,-,N/A,,Clear,130,2012-10-04 02:54:00
10:14 PM,57.6,33.3,40,29.72,10.0,SE,8.1,-,N/A,,Clear,130,2012-10-04 03:14:00
10:34 PM,55.9,33.3,42,29.72,10.0,SE,6.9,-,N/A,,Clear,140,2012-10-04 03:34:00
10:54 PM,57.4,33.8,41,29.71,10.0,SSE,8.1,-,N/A,,Clear,150,2012-10-04 03:54:00
11:14 PM,58.3,33.4,39,29.71,10.0,South,9.2,-,N/A,,Clear,170,2012-10-04 04:14:00
11:34 PM,56.5,38.7,51,29.72,7.0,WSW,11.5,19.6,N/A,,Clear,250,2012-10-04 04:34:00
11:54 PM,53.6,39.2,58,29.74,7.0,WSW,10.4,-,N/A,,Clear,250,2012-10-04 04:54:00